Basel, France

12:31 AM CET on January 20, 2018 (GMT +0100)
Basle-Mulhouse

Weather History for LFSB - January, 2013

Change the Weather History Date:

Tuesday, January 29, 2013

  Actual Average Record
Temperature  
Mean Temperature 42 °F -  
Max Temperature 50 °F 43 °F 55 °F (2002)
Min Temperature 34 °F 29 °F 10 °F (2005)
Degree Days  
Heating Degree Days 23    
Moisture  
Dew Point 38 °F    
Average Humidity 74    
Maximum Humidity 93    
Minimum Humidity 54    
Precipitation  
Precipitation 0.02 in - - ()
Sea Level Pressure  
Sea Level Pressure 30.14 in    
Wind  
Wind Speed 7 mph ()    
Max Wind Speed 13 mph    
Max Gust Speed 24 mph    
Visibility 6.7 miles    
Events Rain    
Averages and records for this station are not official NWS values.
T = Trace of Precipitation, MM = Missing Value Source: Averaged Metar Reports

Daily Weather History Graph

Daily Weather History Graph

Search for Another Location

Airport or City:

Trip Planner

Search our weather history database for the weather conditions in past years. The results will help you decide how hot, cold, wet, or windy it might be!

Date:

Astronomy

Jan. 29, 2013 Rise Set
Actual Time 8:00 AM CET 5:26 PM CET
Civil Twilight 7:26 AM CET 5:59 PM CET
Nautical Twilight 6:49 AM CET 6:37 PM CET
Astronomical Twilight 6:13 AM CET 7:13 PM CET
Moon 8:21 PM CET (1/29) 8:35 AM CET (1/29)
Length of Visible Light 10h 32m
Length of Day
9h 26m
Waning Gibbous, 95% of the Moon is Illuminated
Jan 29
Waning Gibbous
Feb 3
Last Quarter
Feb 10
New
Feb 17
First Quarter
Feb 25
Full

Hourly Weather History & Observations

Time (CET) Temp. Windchill Dew Point Humidity Pressure Visibility Wind Dir Wind Speed Gust Speed Precip Events Conditions
12:00 AM 35.6 °F 32.8 °F 33.8 °F 93% 30.15 in 6.2 mi Variable 3.5 mph - N/A   Mostly Cloudy
12:30 AM 35.6 °F 31.7 °F 32.0 °F 87% 30.15 in 6.2 mi SSE 4.6 mph - N/A   Unknown
1:00 AM 35 °F - 33 °F 89% 30.20 in 7 mi South 8.1 mph - -   Clear
1:00 AM 35.6 °F 29.2 °F 33.8 °F 93% 30.15 in 6.2 mi South 8.1 mph - N/A   Unknown
1:30 AM 35.6 °F 29.2 °F 32.0 °F 87% 30.15 in 6.2 mi SSE 8.1 mph - N/A   Unknown
2:00 AM 35.6 °F 30.7 °F 32.0 °F 87% 30.15 in 6.2 mi SSE 5.8 mph - N/A   Unknown
2:30 AM 37.4 °F 32.1 °F 33.8 °F 87% 30.15 in 6.2 mi SSE 6.9 mph - N/A   Unknown
3:00 AM 39.2 °F 34.2 °F 32.0 °F 75% 30.15 in 6.2 mi ESE 6.9 mph - N/A   Unknown
3:30 AM 39.2 °F 33.0 °F 32.0 °F 75% 30.15 in 6.2 mi ESE 9.2 mph - N/A   Overcast
4:00 AM 39.2 °F 32.5 °F 32.0 °F 75% 30.15 in 6.2 mi ESE 10.4 mph - N/A   Overcast
4:30 AM 39.2 °F 35.9 °F 32.0 °F 75% 30.15 in 6.2 mi ESE 4.6 mph - N/A   Mostly Cloudy
5:00 AM 44.6 °F 39.7 °F 35.6 °F 71% 30.12 in 6.2 mi SSW 9.2 mph - N/A   Mostly Cloudy
5:30 AM 44.6 °F 40.7 °F 33.8 °F 66% 30.12 in 6.2 mi South 6.9 mph - N/A   Mostly Cloudy
6:00 AM 44.6 °F 39.2 °F 35.6 °F 71% 30.12 in 6.2 mi SW 10.4 mph - N/A   Mostly Cloudy
6:30 AM 46.4 °F 40.7 °F 35.6 °F 66% 30.12 in 6.2 mi SW 12.7 mph - N/A   Mostly Cloudy
7:00 AM 46 °F - 35 °F 55% 30.14 in 12 mi SW 11.5 mph - -   Overcast
7:00 AM 46.4 °F 41.1 °F 35.6 °F 66% 30.12 in 6.2 mi SW 11.5 mph - N/A   Mostly Cloudy
7:30 AM 46.4 °F 41.9 °F 35.6 °F 66% 30.12 in 6.2 mi SSW 9.2 mph - N/A   Mostly Cloudy
8:00 AM 46.4 °F 41.1 °F 35.6 °F 66% 30.12 in 6.2 mi SW 11.5 mph - N/A   Mostly Cloudy
8:30 AM 46.4 °F 41.5 °F 35.6 °F 66% 30.12 in 6.2 mi WSW 10.4 mph - N/A   Mostly Cloudy
9:00 AM 48.2 °F - 37.4 °F 66% 30.12 in 6.2 mi SW 12.7 mph 24.2 mph N/A   Mostly Cloudy
9:30 AM 48.2 °F - 35.6 °F 62% 30.12 in 6.2 mi WSW 5.8 mph - N/A   Mostly Cloudy
10:00 AM 48.2 °F - 35.6 °F 62% 30.12 in 6.2 mi SW 9.2 mph - N/A   Mostly Cloudy
10:30 AM 48.2 °F - 35.6 °F 62% 30.12 in 6.2 mi SW 11.5 mph - N/A   Mostly Cloudy
11:00 AM 48.2 °F - 35.6 °F 62% 30.12 in 6.2 mi SSW 8.1 mph - N/A   Mostly Cloudy
11:30 AM 50.0 °F - 35.6 °F 58% 30.12 in 6.2 mi Variable 4.6 mph - N/A   Mostly Cloudy
12:00 PM 50.0 °F - 37.4 °F 62% 30.12 in 6.2 mi SSW 5.8 mph - N/A   Mostly Cloudy
12:30 PM 50.0 °F - 37.4 °F 62% 30.12 in 6.2 mi Variable 5.8 mph - N/A   Mostly Cloudy
1:00 PM 50 °F - 38 °F 54% 30.14 in 14 mi SW 6.9 mph - -   Mostly Cloudy
1:00 PM 50.0 °F - 39.2 °F 66% 30.12 in 6.2 mi Variable 6.9 mph - N/A   Mostly Cloudy
1:30 PM 50.0 °F - 39.2 °F 66% 30.12 in 6.2 mi WSW 9.2 mph - N/A   Mostly Cloudy
2:00 PM 50.0 °F - 39.2 °F 66% 30.12 in 6.2 mi WSW 10.4 mph - N/A   Mostly Cloudy
2:30 PM 50.0 °F - 39.2 °F 66% 30.12 in 6.2 mi WSW 12.7 mph - N/A Rain Light Rain
3:00 PM 48.2 °F - 41.0 °F 76% 30.12 in 6.2 mi WSW 10.4 mph - N/A Rain Light Rain
3:30 PM 48.2 °F - 41.0 °F 76% 30.12 in 6.2 mi SW 10.4 mph - N/A Rain Light Rain
4:30 PM 48.2 °F - 41.0 °F 76% 30.12 in 6.2 mi WSW 3.5 mph - N/A   Mostly Cloudy
5:00 PM 48.2 °F - 41.0 °F 76% 30.12 in 6.2 mi WSW 5.8 mph - N/A   Mostly Cloudy
5:30 PM 48.2 °F - 41.0 °F 76% 30.12 in 6.2 mi Variable 3.5 mph - N/A   Mostly Cloudy
6:00 PM 48.2 °F - 41.0 °F 76% 30.15 in 6.2 mi SSW 5.8 mph - N/A Rain Light Rain
6:30 PM 48.2 °F - 42.8 °F 82% 30.15 in 6.2 mi SW 5.8 mph - N/A   Mostly Cloudy
7:00 PM 48 °F - 42 °F 75% 30.18 in 16 mi SW 5.8 mph - - Rain Light Rain
7:00 PM 48.2 °F - 42.8 °F 82% 30.15 in 6.2 mi SSW 5.8 mph - N/A   Mostly Cloudy
7:30 PM 48.2 °F - 42.8 °F 82% 30.15 in 6.2 mi SW 3.5 mph - N/A Rain Light Rain
8:00 PM 48.2 °F - 42.8 °F 82% 30.15 in 6.2 mi Variable 2.3 mph - N/A   Mostly Cloudy
8:30 PM 48.2 °F - 42.8 °F 82% 30.15 in 6.2 mi WSW 8.1 mph - N/A   Mostly Cloudy
9:00 PM 48.2 °F - 42.8 °F 82% 30.15 in 6.2 mi SW 5.8 mph - N/A   Mostly Cloudy
9:30 PM 48.2 °F - 42.8 °F 82% 30.15 in 6.2 mi SSW 5.8 mph - N/A   Overcast
10:00 PM 48.2 °F - 42.8 °F 82% 30.15 in 6.2 mi SSE 4.6 mph - N/A   Mostly Cloudy
10:30 PM 46.4 °F 44.3 °F 41.0 °F 81% 30.15 in 6.2 mi ESE 4.6 mph - N/A   Mostly Cloudy
11:00 PM 44.6 °F - 41.0 °F 87% 30.15 in 6.2 mi Variable 2.3 mph - N/A   Mostly Cloudy
11:30 PM 44.6 °F 42.2 °F 42.8 °F 93% 30.15 in 6.2 mi SSE 4.6 mph - N/A   Overcast